Volver al catálogo

CZ-6A DEB

ActivoPO
NORAD 60800·DEBRIS·🇨🇳 China

Lanzado Aug 6, 2024 desde Taiyuan Satellite Launch Center

Loading…

Próximos Pases (próximas 24 horas)

TLE

ActualizadoSource: Space-Track

Época: Sep 14, 2026, 10:49 UTC

1 60800U 24140GB  26257.45102416  .00000158  00000-0  76314-4 0  9999
2 60800  88.9971 265.8150 0073406 277.1904  82.0941 14.12685185107783

Sigue CZ-6A DEB en tiempo real con AllMySat

Download on the App Store